Regional Weather Roundup
Issued by NWS

Home | Current Version | Previous Version | Text Only | Print | Product List | Glossary Off
Versions: 1 2 3 4 5 6 7 8 9 10 11 12 13 14 15 16 17 18 19 20 21 22 23 24 25 26 27

000
ASUS45 KBOI 221810
RWRID

IDAHO REGIONAL WEATHER ROUNDUP
NATIONAL WEATHER SERVICE BOISE ID
1200 PM MDT THU JUN 22 2017

NOTE: "FAIR" INDICATES FEW OR NO CLOUDS BELOW 12000 FEET
WITH NO SIGNIFICANT WEATHER AND/OR OBSTRUCTIONS TO VISIBILITY

IDZ012-014-221900-
SOUTHWEST IDAHO


CITY           SKY/WX    TMP DP  RH WIND       PRES   REMARKS
BOISE          SUNNY     74  35  24 NW17G28   30.12S
CALDWELL       SUNNY     74  36  25 W17       30.14S
MOUNTAIN HOME  SUNNY     76  33  21 NW24G30   30.09F
$$

IDZ016-017-221900-
SOUTHCENTRAL IDAHO


CITY           SKY/WX    TMP DP  RH WIND       PRES   REMARKS
BURLEY         SUNNY     70  37  29 W12G20    30.12S
JEROME         SUNNY     72  32  23 W17       30.12F
TWIN FALLS     SUNNY     72  31  22 W16G24    30.13S
$$

IDZ019>023-221900-
SOUTHEAST IDAHO


CITY           SKY/WX    TMP DP  RH WIND       PRES   REMARKS
IDAHO FALLS    SUNNY     70  24  17 N6        30.11F
POCATELLO      SUNNY     70  41  34 VRB3      30.11F
REXBURG        SUNNY     67  22  18 W5        30.11F
$$

IDZ006-010-011-018-031-032-221900-
CENTRAL IDAHO MOUNTAINS


CITY           SKY/WX    TMP DP  RH WIND       PRES   REMARKS
MCCALL         SUNNY     63  29  27 W10       30.19S
HAILEY         SUNNY     66  43  42 SE7       30.16F
STANLEY          N/A     65  22  19 VRB6      30.22S
SALMON         SUNNY     64  30  27 N3        30.12F
CHALLIS        SUNNY     67  22  18 VRB5      30.15F
$$

IDZ002-004-006-007-026-221900-
NORTHERN IDAHO


CITY           SKY/WX    TMP DP  RH WIND       PRES   REMARKS
LEWISTON       SUNNY     73  29  19 NW13      30.20S
LOWELL           N/A     70  39  32 SE5       30.17F
COEUR D`ALENE  SUNNY     66  31  27 N6        30.20R
MULLAN PASS    SUNNY     52  25  35 VRB5      30.23R
$$




USA.gov is the U.S. government's official web portal to all federal, state and local government web resources and services.